Location: Guayaquil
(2.1667°S, 79.9000°W)
Time: 04:10:01
(UTC-05:00)

Hubble Space Telescope - Visible Passes

Search period start: 22 July 2018 00:00
Search period end: 01 August 2018 00:00
Orbit: 537 x 541 km, 28.5° (Epoch: 21 July)

Date Brightness Start Highest point End Pass type
(mag) Time Alt. Az. Time Alt. Az. Time Alt. Az.
22 Jul 1.2 19:10:02 10° SW 19:13:59 42° SSE 19:16:52 17° E visible
22 Jul 3.8 20:51:33 10° W 20:52:17 14° W 20:52:17 14° W visible
23 Jul 0.8 18:59:32 10° SW 19:03:38 61° SSE 19:07:44 10° ENE visible
23 Jul 3.4 20:41:41 10° WNW 20:43:42 18° NW 20:43:42 18° NW visible
24 Jul 0.8 18:49:07 10° WSW 18:53:16 89° S 18:57:26 10° ENE visible
24 Jul 3.4 20:32:05 10° WNW 20:34:29 15° NNW 20:35:08 14° NNW visible
25 Jul 4.0 05:06:59 10° NNE 05:07:26 10° NNE 05:07:52 10° NE visible
25 Jul 3.8 20:23:11 10° NW 20:24:11 11° NNW 20:25:11 10° NNW visible
26 Jul 3.6 04:54:54 10° N 04:57:08 14° NNE 04:59:22 10° ENE visible
27 Jul 3.2 04:44:07 11° NNW 04:46:49 19° NNE 04:49:50 10° ENE visible
28 Jul 2.6 04:35:34 24° N 04:36:29 27° NNE 04:40:00 10° E visible
29 Jul 2.4 04:26:59 33° ENE 04:26:59 33° ENE 04:30:00 10° E visible
30 Jul 3.1 04:18:18 21° ESE 04:18:18 21° ESE 04:19:50 10° ESE visible
30 Jul 2.1 05:53:44 10° W 05:56:59 23° SSW 06:00:18 10° SSE visible
31 Jul 3.8 04:09:29 10° ESE 04:09:29 10° ESE 04:09:34 10° ESE visible
31 Jul 2.5 05:44:54 14° WSW 05:46:40 17° SSW 05:49:26 10° SSE visible
